Weather History for Avoca, PA

Change the Weather History Date:

Tuesday, March 5, 2013

  Actual Average Record
Temperature  
Mean Temperature 35 °F 33 °F  
Max Temperature 41 °F 42 °F 69 °F (1976)
Min Temperature 28 °F 24 °F 2 °F (1948)
Degree Days  
Heating Degree Days 30 32  
Month to date heating degree days 174 162  
Since 1 July heating degree days 4398 4768  
Cooling Degree Days 0 0  
Month to date cooling degree days 0 0  
Year to date cooling degree days 0 0  
Moisture  
Dew Point 21 °F    
Average Humidity 57    
Maximum Humidity 69    
Minimum Humidity 45    
Precipitation  
Precipitation 0.00 in 0.08 in 1.91 in (1920)
Month to date precipitation T 0.36  
Year to date precipitation 3.33 4.76  
Sea Level Pressure  
Sea Level Pressure 30.00 in    
Wind  
Wind Speed 8 mph (NNW)    
Max Wind Speed 21 mph    
Max Gust Speed 28 mph    
Visibility 10 miles    
Events      
T = Trace of Precipitation, MM = Missing Value Source: NWS Daily Summary

Daily Weather History Graph

Daily Weather History Graph

Search for Another Location

Airport:

Trip Planner

Search our weather history database for the weather conditions in past years. The results will help you decide how hot, cold, wet, or windy it might be!

Date:

Astronomy

Mar. 05, 2013 Rise Set
Actual Time 6:30 AM EST 5:58 PM EST
Civil Twilight 6:03 AM EST 6:26 PM EST
Nautical Twilight 5:31 AM EST 6:58 PM EST
Astronomical Twilight 4:59 AM EST 7:30 PM EST
Moon 1:43 AM EST (3/5) 11:32 AM EST (3/5)
Length of Visible Light 12h 23m
Length of Day
11h 27m
Last Quarter, 41% of the Moon is Illuminated
Mar 5
Last Quarter
Mar 11
New
Mar 19
First Quarter
Mar 27
Full
Apr 3
Last Quarter

Hourly Weather History & Observations

Time (EST) Temp. Windchill Dew Point Humidity Pressure Visibility Wind Dir Wind Speed Gust Speed Precip Events Conditions
12:54 AM 28.9 °F 17.7 °F 19.9 °F 69% 29.99 in 10.0 mi WNW 15.0 mph 24.2 mph N/A   Overcast
2:54 AM 28.9 °F 19.8 °F 19.9 °F 69% 29.99 in 10.0 mi WNW 10.4 mph 18.4 mph N/A   Overcast
3:54 AM 28.9 °F 21.1 °F 19.0 °F 67% 30.00 in 10.0 mi WNW 8.1 mph 18.4 mph N/A   Overcast
4:54 AM 28.9 °F 21.9 °F 19.9 °F 69% 30.02 in 10.0 mi Variable 6.9 mph 18.4 mph N/A   Overcast
5:54 AM 28.9 °F 23.9 °F 19.9 °F 69% 30.03 in 10.0 mi Variable 4.6 mph - N/A   Overcast
6:54 AM 28.0 °F 17.5 °F 19.9 °F 72% 30.04 in 10.0 mi NW 12.7 mph 18.4 mph N/A   Overcast
7:54 AM 28.0 °F 16.5 °F 19.0 °F 69% 30.05 in 10.0 mi NNW 15.0 mph 23.0 mph N/A   Overcast
8:54 AM 28.0 °F 16.1 °F 19.0 °F 69% 30.06 in 10.0 mi NW 16.1 mph 23.0 mph N/A   Overcast
9:54 AM 28.0 °F 18.6 °F 19.0 °F 69% 30.06 in 10.0 mi NNW 10.4 mph 18.4 mph N/A   Overcast
10:54 AM 28.9 °F 21.9 °F 19.9 °F 69% 30.06 in 10.0 mi NNW 6.9 mph 16.1 mph N/A   Overcast
11:54 AM 30.0 °F 25.2 °F 19.9 °F 66% 30.05 in 10.0 mi North 4.6 mph - N/A   Overcast
12:36 PM 32.0 °F 26.4 °F 19.4 °F 60% 30.01 in 10.0 mi Variable 5.8 mph - N/A   Scattered Clouds
12:54 PM 34.0 °F 27.2 °F 21.0 °F 59% 30.03 in 10.0 mi West 8.1 mph - N/A   Clear
1:54 PM 37.0 °F 30.4 °F 21.9 °F 54% 30.01 in 10.0 mi NW 9.2 mph - N/A   Clear
2:54 PM 39.0 °F 36.8 °F 21.9 °F 50% 29.99 in 10.0 mi Variable 3.5 mph - N/A   Clear
3:54 PM 41.0 °F 36.4 °F 23.0 °F 49% 29.97 in 10.0 mi Variable 6.9 mph - N/A   Clear
4:54 PM 41.0 °F 37.1 °F 21.9 °F 47% 29.96 in 10.0 mi Variable 5.8 mph - N/A   Clear
5:54 PM 37.9 °F 33.5 °F 24.1 °F 57% 29.96 in 10.0 mi Variable 5.8 mph - N/A   Clear
6:54 PM 36.0 °F 32.1 °F 21.9 °F 57% 29.99 in 10.0 mi East 4.6 mph - N/A   Clear
7:54 PM 34.0 °F 31.0 °F 21.9 °F 61% 29.98 in 10.0 mi Variable 3.5 mph - N/A   Clear
8:54 PM 33.1 °F 30.0 °F 21.9 °F 64% 29.97 in 10.0 mi Variable 3.5 mph - N/A   Clear
9:54 PM 33.1 °F 28.7 °F 21.9 °F 64% 29.97 in 10.0 mi ENE 4.6 mph - N/A   Clear
10:54 PM 33.1 °F 28.7 °F 23.0 °F 66% 29.95 in 10.0 mi Variable 4.6 mph - N/A   Overcast
11:54 PM 33.1 °F 28.7 °F 23.0 °F 66% 29.94 in 10.0 mi Variable 4.6 mph - N/A   Partly Cloudy